Time,TemperatureF,DewpointF,PressureIn,WindDirection,WindDirectionDegrees,WindSpeedMPH,WindSpeedGustMPH,Humidity,HourlyPrecipIn,Conditions,Clouds,dailyrainin,SolarRadiationWatts/m^2,SoftwareType,DateUTC
2013-03-06 00:02:00,26.0,20.0,-100.00,North,6,5.0,11.0,77,0.00,,,0.00,0.000000,,2013-03-06 05:02:00,
2013-03-06 00:11:00,26.0,20.0,-100.00,North,6,5.0,11.0,77,0.00,,,0.00,0.000000,,2013-03-06 05:11:00,
2013-03-06 00:32:00,27.0,21.0,-100.00,NNE,20,4.0,12.0,77,0.00,,,0.00,0.000000,,2013-03-06 05:32:00,
2013-03-06 00:42:00,27.0,21.0,-100.00,NNE,20,4.0,12.0,77,0.00,,,0.00,0.000000,,2013-03-06 05:42:00,
2013-03-06 00:52:00,27.0,21.0,-100.00,NNE,20,4.0,12.0,77,0.00,,,0.00,0.000000,,2013-03-06 05:52:00,
2013-03-06 01:02:00,27.0,21.0,-100.00,NNE,20,4.0,12.0,77,0.00,,,0.00,0.000000,,2013-03-06 06:02:00,
2013-03-06 01:11:00,27.0,21.0,-100.00,NNE,20,4.0,12.0,77,0.00,,,0.00,0.000000,,2013-03-06 06:11:00,
2013-03-06 01:32:00,27.0,21.0,-100.00,North,6,5.0,10.0,79,0.00,,,0.00,0.000000,,2013-03-06 06:32:00,
2013-03-06 01:42:00,27.0,21.0,-100.00,North,6,5.0,10.0,79,0.00,,,0.00,0.000000,,2013-03-06 06:42:00,
2013-03-06 01:52:00,27.0,21.0,-100.00,North,6,5.0,10.0,79,0.00,,,0.00,0.000000,,2013-03-06 06:52:00,
2013-03-06 02:01:00,27.0,21.0,-100.00,North,6,5.0,10.0,79,0.00,,,0.00,0.000000,,2013-03-06 07:01:00,
2013-03-06 02:11:00,27.0,21.0,-100.00,North,6,5.0,10.0,79,0.00,,,0.00,0.000000,,2013-03-06 07:11:00,
2013-03-06 02:32:00,28.0,24.0,-100.00,NNE,12,4.0,8.0,83,0.00,,,0.00,0.000000,,2013-03-06 07:32:00,
2013-03-06 02:42:00,28.0,24.0,-100.00,NNE,12,4.0,8.0,83,0.00,,,0.00,0.000000,,2013-03-06 07:42:00,
2013-03-06 02:52:00,28.0,24.0,-100.00,NNE,12,4.0,8.0,83,0.00,,,0.00,0.000000,,2013-03-06 07:52:00,
2013-03-06 03:01:00,28.0,24.0,-100.00,NNE,12,4.0,8.0,83,0.00,,,0.00,0.000000,,2013-03-06 08:01:00,
2013-03-06 03:11:00,28.0,24.0,-100.00,NNE,12,4.0,8.0,83,0.00,,,0.00,0.000000,,2013-03-06 08:11:00,
2013-03-06 03:12:00,28.0,24.0,-100.00,NNW,342,5.0,9.0,85,0.00,,,0.00,0.000000,,2013-03-06 08:12:00,
2013-03-06 03:32:00,28.0,24.0,-100.00,NNW,342,5.0,9.0,85,0.00,,,0.00,0.000000,,2013-03-06 08:32:00,
2013-03-06 03:42:00,28.0,24.0,-100.00,NNW,342,5.0,9.0,85,0.00,,,0.00,0.000000,,2013-03-06 08:42:00,
2013-03-06 03:52:00,28.0,24.0,-100.00,NNW,342,5.0,9.0,85,0.00,,,0.00,0.000000,,2013-03-06 08:52:00,
2013-03-06 04:01:00,28.0,24.0,-100.00,NNW,342,5.0,9.0,85,0.00,,,0.00,0.000000,,2013-03-06 09:01:00,
2013-03-06 04:32:00,28.0,25.0,-100.00,North,9,4.0,11.0,90,0.00,,,0.00,0.000000,,2013-03-06 09:32:00,
2013-03-06 04:42:00,28.0,25.0,-100.00,North,9,4.0,11.0,90,0.00,,,0.00,0.000000,,2013-03-06 09:42:00,
2013-03-06 04:52:00,28.0,25.0,-100.00,North,9,4.0,11.0,90,0.00,,,0.00,0.000000,,2013-03-06 09:52:00,
2013-03-06 05:01:00,28.0,25.0,-100.00,North,9,4.0,11.0,90,0.00,,,0.00,0.000000,,2013-03-06 10:01:00,
2013-03-06 05:11:00,28.0,25.0,-100.00,North,9,4.0,11.0,90,0.00,,,0.00,0.000000,,2013-03-06 10:11:00,
2013-03-06 05:42:00,28.0,26.0,-100.00,North,2,5.0,10.0,93,0.00,,,0.00,0.000000,,2013-03-06 10:42:00,
2013-03-06 05:52:00,28.0,26.0,-100.00,North,2,5.0,10.0,93,0.00,,,0.00,0.000000,,2013-03-06 10:52:00,
2013-03-06 06:02:00,28.0,26.0,-100.00,North,2,5.0,10.0,93,0.00,,,0.00,0.000000,,2013-03-06 11:02:00,
2013-03-06 06:11:00,28.0,26.0,-100.00,North,2,5.0,10.0,93,0.00,,,0.00,0.000000,,2013-03-06 11:11:00,
2013-03-06 06:32:00,28.0,27.0,-100.00,North,4,4.0,10.0,94,0.00,,,0.00,0.000000,,2013-03-06 11:32:00,
2013-03-06 06:42:00,28.0,27.0,-100.00,North,4,4.0,10.0,94,0.00,,,0.00,0.000000,,2013-03-06 11:42:00,
2013-03-06 06:52:00,28.0,27.0,-100.00,North,4,4.0,10.0,94,0.00,,,0.00,0.000000,,2013-03-06 11:52:00,
2013-03-06 07:02:00,28.0,27.0,-100.00,North,4,4.0,10.0,94,0.00,,,0.00,0.000000,,2013-03-06 12:02:00,
2013-03-06 07:11:00,28.0,27.0,-100.00,North,4,4.0,10.0,94,0.00,,,0.00,0.000000,,2013-03-06 12:11:00,
2013-03-06 07:33:00,28.0,26.0,-100.00,NNE,20,3.0,9.0,93,0.00,,,0.00,0.000000,,2013-03-06 12:33:00,
2013-03-06 07:43:00,28.0,26.0,-100.00,NNE,20,3.0,9.0,93,0.00,,,0.00,0.000000,,2013-03-06 12:43:00,
2013-03-06 07:52:00,28.0,26.0,-100.00,NNE,20,3.0,9.0,93,0.00,,,0.00,0.000000,,2013-03-06 12:52:00,
2013-03-06 08:02:00,28.0,26.0,-100.00,NNE,20,3.0,9.0,93,0.00,,,0.00,0.000000,,2013-03-06 13:02:00,
2013-03-06 08:11:00,28.0,26.0,-100.00,NNE,20,3.0,9.0,93,0.00,,,0.00,0.000000,,2013-03-06 13:11:00,
2013-03-06 08:32:00,28.0,25.0,-100.00,North,1,5.0,8.0,90,0.00,,,0.00,14.000000,,2013-03-06 13:32:00,
2013-03-06 08:42:00,28.0,25.0,-100.00,North,1,5.0,8.0,90,0.00,,,0.00,14.000000,,2013-03-06 13:42:00,
2013-03-06 08:52:00,28.0,25.0,-100.00,North,1,5.0,8.0,90,0.00,,,0.00,14.000000,,2013-03-06 13:52:00,
2013-03-06 09:01:00,28.0,25.0,-100.00,North,1,5.0,8.0,90,0.00,,,0.00,14.000000,,2013-03-06 14:01:00,
2013-03-06 09:11:00,28.0,25.0,-100.00,North,1,5.0,8.0,90,0.00,,,0.00,14.000000,,2013-03-06 14:11:00,
2013-03-06 09:32:00,29.0,25.0,-100.00,NNE,16,5.0,10.0,85,0.00,,,0.00,55.000000,,2013-03-06 14:32:00,
2013-03-06 09:42:00,29.0,25.0,-100.00,NNE,16,5.0,10.0,85,0.00,,,0.00,55.000000,,2013-03-06 14:42:00,
2013-03-06 09:52:00,29.0,25.0,-100.00,NNE,16,5.0,10.0,85,0.00,,,0.00,55.000000,,2013-03-06 14:52:00,
2013-03-06 10:02:00,29.0,25.0,-100.00,NNE,16,5.0,10.0,85,0.00,,,0.00,55.000000,,2013-03-06 15:02:00,
2013-03-06 10:11:00,29.0,25.0,-100.00,NNE,16,5.0,10.0,85,0.00,,,0.00,55.000000,,2013-03-06 15:11:00,
2013-03-06 10:32:00,31.0,27.0,-100.00,North,352,5.0,12.0,84,0.00,,,0.00,100.000000,,2013-03-06 15:32:00,
2013-03-06 10:42:00,31.0,27.0,-100.00,North,352,5.0,12.0,84,0.00,,,0.00,100.000000,,2013-03-06 15:42:00,
2013-03-06 10:52:00,31.0,27.0,-100.00,North,352,5.0,12.0,84,0.00,,,0.00,100.000000,,2013-03-06 15:52:00,
2013-03-06 11:01:00,31.0,27.0,-100.00,North,352,5.0,12.0,84,0.00,,,0.00,100.000000,,2013-03-06 16:01:00,
2013-03-06 11:11:00,31.0,27.0,-100.00,North,352,5.0,12.0,84,0.00,,,0.00,100.000000,,2013-03-06 16:11:00,
2013-03-06 11:42:00,31.0,26.0,-100.00,NNW,344,5.0,11.0,81,0.00,,,0.00,175.000000,,2013-03-06 16:42:00,
2013-03-06 11:52:00,31.0,26.0,-100.00,NNW,344,5.0,11.0,81,0.00,,,0.00,175.000000,,2013-03-06 16:52:00,
2013-03-06 12:01:00,31.0,26.0,-100.00,NNW,344,5.0,11.0,81,0.00,,,0.00,175.000000,,2013-03-06 17:01:00,
2013-03-06 12:11:00,31.0,26.0,-100.00,NNW,344,5.0,11.0,81,0.00,,,0.00,175.000000,,2013-03-06 17:11:00,
2013-03-06 12:32:00,30.0,25.0,-100.00,NNW,338,7.0,13.0,83,0.00,,,0.00,164.000000,,2013-03-06 17:32:00,
2013-03-06 12:42:00,30.0,25.0,-100.00,NNW,338,7.0,13.0,83,0.00,,,0.00,164.000000,,2013-03-06 17:42:00,
2013-03-06 12:53:00,30.0,25.0,-100.00,NNW,338,7.0,13.0,83,0.00,,,0.00,164.000000,,2013-03-06 17:53:00,
2013-03-06 13:02:00,30.0,25.0,-100.00,NNW,338,7.0,13.0,83,0.00,,,0.00,164.000000,,2013-03-06 18:02:00,
2013-03-06 13:32:00,31.0,24.0,-100.00,NNW,343,7.0,14.0,76,0.00,,,0.00,207.000000,,2013-03-06 18:32:00,
2013-03-06 13:42:00,31.0,24.0,-100.00,NNW,343,7.0,14.0,76,0.00,,,0.00,207.000000,,2013-03-06 18:42:00,
2013-03-06 13:53:00,31.0,24.0,-100.00,NNW,343,7.0,14.0,76,0.00,,,0.00,207.000000,,2013-03-06 18:53:00,
2013-03-06 14:02:00,31.0,24.0,-100.00,NNW,343,7.0,14.0,76,0.00,,,0.00,207.000000,,2013-03-06 19:02:00,
2013-03-06 14:11:00,31.0,24.0,-100.00,NNW,343,7.0,14.0,76,0.00,,,0.00,207.000000,,2013-03-06 19:11:00,
2013-03-06 14:12:00,31.0,23.0,-100.00,NNW,348,7.0,14.0,73,0.00,,,0.00,206.000000,,2013-03-06 19:12:00,
2013-03-06 14:43:00,31.0,23.0,-100.00,NNW,348,7.0,14.0,73,0.00,,,0.00,206.000000,,2013-03-06 19:43:00,
2013-03-06 14:53:00,31.0,23.0,-100.00,NNW,348,7.0,14.0,73,0.00,,,0.00,206.000000,,2013-03-06 19:53:00,
2013-03-06 15:02:00,31.0,23.0,-100.00,NNW,348,7.0,14.0,73,0.00,,,0.00,206.000000,,2013-03-06 20:02:00,
2013-03-06 15:12:00,35.0,23.0,-100.00,North,359,6.0,14.0,61,0.00,,,0.00,381.000000,,2013-03-06 20:12:00,
2013-03-06 15:33:00,35.0,23.0,-100.00,North,359,6.0,14.0,61,0.00,,,0.00,381.000000,,2013-03-06 20:33:00,
2013-03-06 15:43:00,35.0,23.0,-100.00,North,359,6.0,14.0,61,0.00,,,0.00,381.000000,,2013-03-06 20:43:00,
2013-03-06 15:53:00,35.0,23.0,-100.00,North,359,6.0,14.0,61,0.00,,,0.00,381.000000,,2013-03-06 20:53:00,
2013-03-06 16:02:00,35.0,23.0,-100.00,North,359,6.0,14.0,61,0.00,,,0.00,381.000000,,2013-03-06 21:02:00,
2013-03-06 16:42:00,33.0,22.0,-100.00,North,353,5.0,12.0,63,0.00,,,0.00,222.000000,,2013-03-06 21:42:00,
2013-03-06 16:52:00,33.0,22.0,-100.00,North,353,5.0,12.0,63,0.00,,,0.00,222.000000,,2013-03-06 21:52:00,
2013-03-06 17:01:00,33.0,22.0,-100.00,North,353,5.0,12.0,63,0.00,,,0.00,222.000000,,2013-03-06 22:01:00,
2013-03-06 17:11:00,33.0,22.0,-100.00,North,353,5.0,12.0,63,0.00,,,0.00,222.000000,,2013-03-06 22:11:00,
2013-03-06 17:32:00,32.0,20.0,-100.00,North,358,4.0,9.0,62,0.00,,,0.00,136.000000,,2013-03-06 22:32:00,
2013-03-06 17:42:00,32.0,20.0,-100.00,North,358,4.0,9.0,62,0.00,,,0.00,136.000000,,2013-03-06 22:42:00,
2013-03-06 17:52:00,32.0,20.0,-100.00,North,358,4.0,9.0,62,0.00,,,0.00,136.000000,,2013-03-06 22:52:00,
2013-03-06 18:01:00,32.0,20.0,-100.00,North,358,4.0,9.0,62,0.00,,,0.00,136.000000,,2013-03-06 23:01:00,
2013-03-06 18:11:00,32.0,20.0,-100.00,North,358,4.0,9.0,62,0.00,,,0.00,136.000000,,2013-03-06 23:11:00,
2013-03-06 18:32:00,30.0,20.0,-100.00,North,349,6.0,10.0,67,0.00,,,0.00,37.000000,,2013-03-06 23:32:00,
2013-03-06 18:42:00,30.0,20.0,-100.00,North,349,6.0,10.0,67,0.00,,,0.00,37.000000,,2013-03-06 23:42:00,
2013-03-06 18:52:00,30.0,20.0,-100.00,North,349,6.0,10.0,67,0.00,,,0.00,37.000000,,2013-03-06 23:52:00,
2013-03-06 19:01:00,30.0,20.0,-100.00,North,349,6.0,10.0,67,0.00,,,0.00,37.000000,,2013-03-07 00:01:00,
2013-03-06 19:11:00,30.0,20.0,-100.00,North,349,6.0,10.0,67,0.00,,,0.00,37.000000,,2013-03-07 00:11:00,
2013-03-06 19:32:00,28.0,19.0,-100.00,NNW,338,6.0,11.0,68,0.00,,,0.00,5.000000,,2013-03-07 00:32:00,
2013-03-06 19:42:00,28.0,19.0,-100.00,NNW,338,6.0,11.0,68,0.00,,,0.00,5.000000,,2013-03-07 00:42:00,
2013-03-06 19:52:00,28.0,19.0,-100.00,NNW,338,6.0,11.0,68,0.00,,,0.00,5.000000,,2013-03-07 00:52:00,
2013-03-06 20:01:00,28.0,19.0,-100.00,NNW,338,6.0,11.0,68,0.00,,,0.00,5.000000,,2013-03-07 01:01:00,
2013-03-06 20:11:00,28.0,19.0,-100.00,NNW,338,6.0,11.0,68,0.00,,,0.00,5.000000,,2013-03-07 01:11:00,
2013-03-06 20:32:00,26.0,17.0,-100.00,NNW,334,6.0,16.0,67,0.00,,,0.00,0.000000,,2013-03-07 01:32:00,
2013-03-06 20:42:00,26.0,17.0,-100.00,NNW,334,6.0,16.0,67,0.00,,,0.00,0.000000,,2013-03-07 01:42:00,
2013-03-06 20:52:00,26.0,17.0,-100.00,NNW,334,6.0,16.0,67,0.00,,,0.00,0.000000,,2013-03-07 01:52:00,
2013-03-06 21:01:00,26.0,17.0,-100.00,NNW,334,6.0,16.0,67,0.00,,,0.00,0.000000,,2013-03-07 02:01:00,
2013-03-06 21:11:00,26.0,17.0,-100.00,NNW,334,6.0,16.0,67,0.00,,,0.00,0.000000,,2013-03-07 02:11:00,
2013-03-06 21:32:00,25.0,16.0,-100.00,North,352,6.0,12.0,68,0.00,,,0.00,0.000000,,2013-03-07 02:32:00,
2013-03-06 21:42:00,25.0,16.0,-100.00,North,352,6.0,12.0,68,0.00,,,0.00,0.000000,,2013-03-07 02:42:00,
2013-03-06 21:52:00,25.0,16.0,-100.00,North,352,6.0,12.0,68,0.00,,,0.00,0.000000,,2013-03-07 02:52:00,
2013-03-06 22:02:00,25.0,16.0,-100.00,North,352,6.0,12.0,68,0.00,,,0.00,0.000000,,2013-03-07 03:02:00,
2013-03-06 22:11:00,25.0,16.0,-100.00,North,352,6.0,12.0,68,0.00,,,0.00,0.000000,,2013-03-07 03:11:00,
2013-03-06 22:32:00,24.0,13.0,-100.00,NNW,334,6.0,14.0,63,0.00,,,0.00,0.000000,,2013-03-07 03:32:00,
2013-03-06 22:42:00,24.0,13.0,-100.00,NNW,334,6.0,14.0,63,0.00,,,0.00,0.000000,,2013-03-07 03:42:00,
2013-03-06 22:52:00,24.0,13.0,-100.00,NNW,334,6.0,14.0,63,0.00,,,0.00,0.000000,,2013-03-07 03:52:00,
2013-03-06 23:01:00,24.0,13.0,-100.00,NNW,334,6.0,14.0,63,0.00,,,0.00,0.000000,,2013-03-07 04:01:00,
2013-03-06 23:11:00,24.0,13.0,-100.00,NNW,334,6.0,14.0,63,0.00,,,0.00,0.000000,,2013-03-07 04:11:00,
2013-03-06 23:12:00,21.0,11.0,-100.00,North,6,4.0,11.0,66,0.00,,,0.00,0.000000,,2013-03-07 04:12:00,
2013-03-06 23:32:00,21.0,11.0,-100.00,North,6,4.0,11.0,66,0.00,,,0.00,0.000000,,2013-03-07 04:32:00,
2013-03-06 23:42:00,21.0,11.0,-100.00,North,6,4.0,11.0,66,0.00,,,0.00,0.000000,,2013-03-07 04:42:00,
2013-03-06 23:52:00,21.0,11.0,-100.00,North,6,4.0,11.0,66,0.00,,,0.00,0.000000,,2013-03-07 04:52:00,